Location: Praha
(50.0830°N, 14.4670°E)
Time: 05:49:13
(UTC+01:00)

ISS - Pass Details

Date: 25 November 2019
Orbit: 411 x 421 km, 51.6° (Epoch: 15 December)

Event Time Altitude Azimuth Distance (km) Brightness Sun altitude
Rises 17:35:56 0° 221° (SW) 2,346 1.1 -13.7°
Reaches altitude 10° 17:38:09 10° 211° (SSW) 1,489 -0.3 -14.1°
Maximum altitude 17:41:08 31° 147° (SSE) 765 -2.6 -14.6°
Enters shadow 17:42:11 25° 112° (ESE) 888 -2.6 -14.7°
